Weather Roundup
Issued by NWS Springfield, MO

Home | Current Version | Previous Version | Text Only | Print | Product List | Glossary On
Versions: 1 2 3 4 5 6 7 8 9 10 11 12 13 14 15 16 17 18 19 20 21 22 23 24 25 26 27 28 29 30 31 32 33 34 35 36 37 38 39 40 41 42 43 44 45 46 47 48 49 50
000
NZUS99 KSGF 012359
HRRSGF

HOURLY WEATHER
NATIONAL WEATHER SERVICE SPRINGFIELD MO
700 PM CDT WED JUL 01 2015

......SGF CWA......

CITY           SKY/WX    TMP DP  RH WIND       PRES   REMARKS
SPRINGFIELD    MOSUNNY   84  74  71 S13       29.84F HX  91
6HR MIN TEMP:  72; 6HR MAX TEMP:  85; 6HR PCP:  0.01;

JOPLIN         CLOUDY    84  74  71 S13       29.82F HX  91
6HR MIN TEMP:  84; 6HR MAX TEMP:  86; 6HR PCP: TRACE;

WEST PLAINS    MOSUNNY   79  73  82 S5        29.91R
6HR MIN TEMP:  70; 6HR MAX TEMP:  80; 6HR PCP: TRACE;

ROLLA            N/A     77  72  84 S6        29.87S
6HR MIN TEMP:  73; 6HR MAX TEMP:  80; 6HR PCP: TRACE;

OSAGE BEACH    MOSUNNY   84  73  70 S5        29.84F HX  91
BRANSON        PTSUNNY   82  73  74 SE6       29.89F

......SURROUNDING SGF CWA......

CITY           SKY/WX    TMP DP  RH WIND       PRES   REMARKS
CHANUTE        PTSUNNY   88  73  61 S16G29    29.78S HX  95
PARSONS        CLOUDY    86  75  69 S9        29.79F HX  95
COFFEYVILLE    CLOUDY    87  74  64 S14G22    29.78F HX  95
EMPORIA        SUNNY     91  71  51 S8        29.78S HX  97
SILOAM SPRINGS CLOUDY    84  70  61 S10       29.90F
HARRISON AR    CLOUDY    81  74  79 S6        29.89F
NEAR YELLVILLE   N/A     82  72  69 SW3       29.85F

......KANSAS AND MISSOURI......

CITY           SKY/WX    TMP DP  RH WIND       PRES   REMARKS
KANSAS CTY INT PTSUNNY   83  75  77 E12       29.81S HX  90
DOWNTOWN KC    TSTM      81  76  84 NW9       29.79S
COLUMBIA       CLOUDY    79  73  82 E7        29.85F
SEDALIA        CLOUDY    82  75  79 E6        29.84F
ST JOSEPH      MOSUNNY   83  74  74 NE8       29.81F
ST LOUIS       CLOUDY    82  68  62 N3        29.87R
SPIRIT OF STL  CLOUDY    80  73  79 SW7       29.85F
KIRKSVILLE     CLOUDY    76  70  82 NE12      29.89R
WICHITA        MOSUNNY   97  66  36 N8        29.74F HX 100
TOPEKA         SUNNY     92  71  50 N5        29.77F HX  98
OLATHE         MOSUNNY   85  77  77 SE7       29.79F HX  95

......TENNESSEE......

CITY           SKY/WX    TMP DP  RH WIND       PRES   REMARKS
MEMPHIS        PTSUNNY   86  74  67 SW12      29.93S HX  94
NASHVILLE      CLOUDY    71  69  93 SW7       29.98R

......ARKANSAS.......

CITY           SKY/WX    TMP DP  RH WIND       PRES   REMARKS
FAYETTEVILLE   PTSUNNY   83  72  69 SW9       29.91F
FT SMITH       SUNNY     91  67  44 S13G22    29.88R HX  94
LITTLE ROCK    PTSUNNY   87  70  56 SW14G20   29.92S HX  92

......OKLAHOMA.......

CITY           SKY/WX    TMP DP  RH WIND       PRES   REMARKS
TULSA          PTSUNNY   91  74  57 S14G24    29.82F HX 100
PONCA CITY     MOSUNNY   96  66  37 S13G25    29.77F HX  99
MCALESTER      SUNNY     89  71  55 S12       29.90S HX  95
OKLAHOMA CITY  MOSUNNY   91  70  49 S17G24    29.85F HX  96

......IOWA............

CITY           SKY/WX    TMP DP  RH WIND       PRES   REMARKS
DES MOINES     CLOUDY    73  60  63 E12       29.91S
QUAD CITIES    MOSUNNY   72  57  59 NE9       29.92S

......ILLINOIS........

CITY           SKY/WX    TMP DP  RH WIND       PRES   REMARKS
QUINCY         PTSUNNY   77  69  76 E14       29.88R HAZE
CHICAGO        CLOUDY    59  50  72 NE12      29.98S



USA.gov is the U.S. government's official web portal to all federal, state and local government web resources and services.